Overview Statistics Trail Chart Weather Telemetry Raw packets
 

This is the latest recevied weather packets stored in our database for station/object KI6SYE. If no packets are shown the sender has not sent any weather packets the latest 10 day(s).

<< 77 78 79 80 81 82 83 >>
Time Temp. Humidity Pressure Rain* Wind** Luminosity Snow
1788124048 25° C 80% 1011.8 hPa 0 mm - 680 W/m² -
1788123737 25.56° C 80% 1011.9 hPa 0 mm - 687 W/m² -
1788123435 25.56° C 80% 1012 hPa 0 mm - 692 W/m² -
1788123130 26.11° C 79% 1012.1 hPa 0 mm - 698 W/m² -
1788122830 26.11° C 79% 1012 hPa 0 mm - 701 W/m² -
1788122529 25.56° C 79% 1012.1 hPa 0 mm - 703 W/m² -
1788122225 25° C 80% 1011.8 hPa 0 mm - 712 W/m² -
1788121921 25.56° C 79% 1012.1 hPa 0 mm - 715 W/m² -
1788121620 25.56° C 79% 1012.3 hPa 0 mm - 717 W/m² -
1788121315 25.56° C 79% 1012 hPa 0 mm - 721 W/m² -
1788121010 26.11° C 78% 1011.9 hPa 0 mm - 724 W/m² -
1788120705 25.56° C 79% 1012.1 hPa 0 mm - 726 W/m² -
1788120400 25.56° C 79% 1011.9 hPa 0 mm - 730 W/m² -
1788120104 25.56° C 80% 1011.9 hPa 0 mm - 730 W/m² -
1788119795 25.56° C 80% 1012.1 hPa 0 mm - 731 W/m² -
1788119493 25.56° C 80% 1012 hPa 0 mm - 729 W/m² -
1788119187 25° C 81% 1012.1 hPa 0 mm - 730 W/m² -
1788118886 25.56° C 80% 1012.1 hPa 0 mm - 730 W/m² -
1788118581 25.56° C 80% 1012 hPa 0 mm - 729 W/m² -
1788118276 25.56° C 79% 1011.9 hPa 0 mm - 728 W/m² -
1788117972 25.56° C 79% 1012.1 hPa 0 mm - 728 W/m² -
1788117671 25° C 80% 1012.1 hPa 0 mm - 724 W/m² -
1788117367 25.56° C 80% 1012.2 hPa 0 mm - 721 W/m² -
1788117062 25.56° C 79% 1012.4 hPa 0 mm - 720 W/m² -
1788116757 25.56° C 79% 1012.2 hPa 0 mm - 715 W/m² -

* Rain latest hour (hover to see other rain measurements)
** Current wind speed in m/s (hover to see current wind gust speed)